User: anonymous   Login
Location: ???????
(55.2903°N, 39.1554°E)
Time: 13:29:52
(UTC+00:00)
Language:

Cosmos 1340 Rocket - Orbit

View from above orbital plane
View from above orbital plane
View from above satellite
View from above satellite

Ground track
Ground track

The orbit data is extracted from the following two-line orbital elements,

1 13068U 82013B   24167.89161493  .00004514  00000-0  24676-3 0  9995
2 13068  81.1775 177.0597 0027024 138.9851 221.3416 15.13773591308489
Epoch (UTC): 15 June 2024 21:23:55
Eccentricity: 0.0027024
inclination: 81.1775°
perigee height: 506 km
apogee height: 543 km
right ascension of ascending node: 177.0597°
argument of perigee: 138.9851°
revolutions per day: 15.13773591
mean anomaly at epoch: 221.3416°
orbit number at epoch: 30848

The dashed part of the orbit path shows where the satellite is in the earth's shadow,  

DLR